Location: Gazon
(48.1318°N, 1.2708°W)
Time: 02:32:18
(UTC+00:00)

USA 234 - Pass Details

Date: 18 September 2020
Orbit: 1102 x 1106 km, 123.0° (Epoch: 16 October)

Event Time Altitude Azimuth Distance (km) Brightness Sun altitude
Rises 18:35:33 0° 62° (ENE) 3,927 5.7 -5.0°
Reaches altitude 10° 18:38:57 10° 80° (E) 2,965 4.9 -5.6°
Maximum altitude 18:43:21 19° 123° (ESE) 2,368 4.5 -6.3°
Drops below altitude 10° 18:47:43 10° 165° (SSE) 2,956 5.3 -7.0°
Sets 18:51:05 0° 183° (S) 3,910 6.1 -7.5°
